Location: Austin
(30.3000°N, 97.7500°W)
Time: 07:38:14
(UTC-05:00)

FengYun 1-2 T - Pass Details

Date: 19 September 2023
Orbit: 845 x 881 km, 98.7° (Epoch: 25 September)

Event Time Altitude Azimuth Distance (km) Brightness Sun altitude
Rises 06:48:26 0° 12° (NNE) 3,415 7.6 -7.1°
Reaches altitude 10° 06:50:48 10° 12° (NNE) 2,480 6.9 -6.6°
Maximum altitude 06:56:19 86° 286° (WNW) 861 4.3 -5.4°
Drops below altitude 10° 07:01:51 10° 196° (SSW) 2,489 6.5 -4.2°
Sets 07:04:13 0° 195° (SSW) 3,428 7.2 -3.7°
